Weather History for Kearney, NE

Change the Weather History Date:

Tuesday, October 1, 2013

  Actual Average Record
Temperature  
Mean Temperature 65 °F 57 °F  
Max Temperature 77 °F 71 °F 93 °F (1952)
Min Temperature 52 °F 43 °F 25 °F (1985)
Degree Days  
Heating Degree Days 0 9  
Cooling Degree Days 0 1  
Growing Degree Days 13 (Base 50)    
Moisture  
Dew Point 45 °F    
Average Humidity 59    
Maximum Humidity 89    
Minimum Humidity 29    
Precipitation  
Precipitation 0.00 in - 0.98 in (1977)
Sea Level Pressure  
Sea Level Pressure 29.93 in    
Wind  
Wind Speed 9 mph (NE)    
Max Wind Speed 17 mph    
Max Gust Speed 20 mph    
Visibility 10 miles    
Events      
T = Trace of Precipitation, MM = Missing Value Source: NWS Daily Summary

Daily Weather History Graph

Daily Weather History Graph

Search for Another Location

Airport:

Trip Planner

Search our weather history database for the weather conditions in past years. The results will help you decide how hot, cold, wet, or windy it might be!

Date:

Astronomy

Oct. 01, 2013 Rise Set
Actual Time 7:32 AM CDT 7:17 PM CDT
Civil Twilight 7:05 AM CDT 7:44 PM CDT
Nautical Twilight 6:33 AM CDT 8:16 PM CDT
Astronomical Twilight 6:01 AM CDT 8:48 PM CDT
Moon 4:07 AM CDT (10/1) 5:22 PM CDT (10/1)
Length of Visible Light 12h 39m
Length of Day
11h 44m
Waning Crescent, 12% of the Moon is Illuminated
Oct 1
Waning Crescent
Oct 4
New
Oct 11
First Quarter
Oct 18
Full
Oct 26
Last Quarter

Hourly Weather History & Observations

Time (CDT) Temp. Dew Point Humidity Pressure Visibility Wind Dir Wind Speed Gust Speed Precip Events Conditions
12:15 AM 57.2 °F 51.8 °F 82% 29.78 in 10.0 mi SSW 12.7 mph - N/A   Clear
12:35 AM 57.2 °F 51.8 °F 82% 29.78 in 10.0 mi SSW 12.7 mph - N/A   Clear
12:55 AM 59.0 °F 51.8 °F 77% 29.78 in 10.0 mi South 11.5 mph - N/A   Clear
1:15 AM 59.0 °F 51.8 °F 77% 29.78 in 10.0 mi South 10.4 mph - N/A   Clear
1:35 AM 59.0 °F 51.8 °F 77% 29.79 in 10.0 mi South 9.2 mph - N/A   Clear
1:55 AM 57.2 °F 51.8 °F 82% 29.79 in 10.0 mi SSW 8.1 mph - N/A   Clear
2:15 AM 57.2 °F 51.8 °F 82% 29.79 in 10.0 mi South 8.1 mph - N/A   Clear
2:35 AM 57.2 °F 51.8 °F 82% 29.80 in 10.0 mi SSW 8.1 mph - N/A   Clear
2:55 AM 57.2 °F 51.8 °F 82% 29.80 in 10.0 mi SSW 8.1 mph - N/A   Clear
3:15 AM 55.4 °F 51.8 °F 88% 29.80 in 10.0 mi SSW 9.2 mph - N/A   Clear
3:35 AM 59.0 °F 51.8 °F 77% 29.86 in 10.0 mi NNW 17.3 mph 25.3 mph N/A   Clear
3:55 AM 59.0 °F 51.8 °F 77% 29.85 in 10.0 mi Calm Calm - N/A   Clear
4:15 AM 55.4 °F 50.0 °F 82% 29.85 in 8.0 mi Calm Calm - N/A   Clear
4:35 AM 53.6 °F 48.2 °F 82% 29.85 in 10.0 mi Calm Calm - N/A   Clear
4:55 AM 51.8 °F 48.2 °F 88% 29.85 in 10.0 mi Calm Calm - N/A   Clear
5:15 AM 53.6 °F 50.0 °F 88% 29.87 in 10.0 mi NNW 8.1 mph - N/A   Clear
5:35 AM 55.4 °F 50.0 °F 82% 29.88 in 10.0 mi NNW 6.9 mph - N/A   Clear
5:55 AM 55.4 °F 50.0 °F 82% 29.88 in 10.0 mi North 10.4 mph - N/A   Clear
6:15 AM 55.4 °F 48.2 °F 77% 29.89 in 10.0 mi North 9.2 mph - N/A   Clear
6:35 AM 55.4 °F 48.2 °F 77% 29.91 in 10.0 mi NNW 8.1 mph - N/A   Clear
6:55 AM 55.4 °F 46.4 °F 72% 29.92 in 10.0 mi North 11.5 mph - N/A   Clear
7:15 AM 53.6 °F 46.4 °F 77% 29.93 in 10.0 mi North 11.5 mph - N/A   Clear
7:35 AM 53.6 °F 44.6 °F 72% 29.94 in 10.0 mi North 9.2 mph - N/A   Clear
7:55 AM 51.8 °F 44.6 °F 76% 29.94 in 10.0 mi North 10.4 mph - N/A   Clear
8:15 AM 53.6 °F 44.6 °F 72% 29.96 in 10.0 mi North 10.4 mph - N/A   Clear
8:35 AM 53.6 °F 44.6 °F 72% 29.97 in 10.0 mi North 11.5 mph - N/A   Clear
8:55 AM 55.4 °F 44.6 °F 67% 29.98 in 10.0 mi North 11.5 mph - N/A   Clear
9:15 AM 57.2 °F 42.8 °F 59% 29.99 in 10.0 mi NNE 13.8 mph - N/A   Clear
9:35 AM 59.0 °F 42.8 °F 55% 30.00 in 10.0 mi NNE 13.8 mph - N/A   Clear
9:55 AM 60.8 °F 42.8 °F 52% 30.00 in 10.0 mi NNE 17.3 mph - N/A   Clear
10:15 AM 62.6 °F 39.2 °F 42% 30.01 in 10.0 mi NNE 17.3 mph - N/A   Clear
10:35 AM 62.6 °F 41.0 °F 45% 30.01 in 10.0 mi NE 17.3 mph - N/A   Clear
10:55 AM 64.4 °F 39.2 °F 40% 30.01 in 10.0 mi NE 12.7 mph - N/A   Clear
11:15 AM 66.2 °F 39.2 °F 37% 30.02 in 10.0 mi NE 15.0 mph - N/A   Clear
11:35 AM 68.0 °F 39.2 °F 35% 30.02 in 10.0 mi NE 12.7 mph - N/A   Clear
11:55 AM 69.8 °F 41.0 °F 35% 30.02 in 10.0 mi NNE 11.5 mph 18.4 mph N/A   Clear
12:15 PM 69.8 °F 39.2 °F 33% 30.01 in 10.0 mi NE 12.7 mph 17.3 mph N/A   Clear
12:35 PM 69.8 °F 37.4 °F 31% 30.00 in 10.0 mi NNE 12.7 mph - N/A   Clear
12:55 PM 71.6 °F 37.4 °F 29% 30.00 in 10.0 mi NE 13.8 mph - N/A   Clear
1:15 PM 71.6 °F 39.2 °F 31% 30.00 in 10.0 mi ENE 12.7 mph 19.6 mph N/A   Clear
1:35 PM 73.4 °F 39.2 °F 29% 29.99 in 10.0 mi NE 12.7 mph - N/A   Clear
1:55 PM 73.4 °F 39.2 °F 29% 29.99 in 10.0 mi NE 12.7 mph - N/A   Clear
2:15 PM 73.4 °F 39.2 °F 29% 29.98 in 10.0 mi NE 13.8 mph - N/A   Clear
2:35 PM 75.2 °F 41.0 °F 29% 29.97 in 10.0 mi ENE 12.7 mph - N/A   Clear
2:55 PM 75.2 °F 41.0 °F 29% 29.97 in 10.0 mi ENE 13.8 mph 19.6 mph N/A   Clear
3:15 PM 75.2 °F 39.2 °F 27% 29.97 in 10.0 mi ENE 8.1 mph 17.3 mph N/A   Clear
3:35 PM 75.2 °F 41.0 °F 29% 29.96 in 10.0 mi East 9.2 mph 18.4 mph N/A   Clear
3:55 PM 75.2 °F 41.0 °F 29% 29.96 in 10.0 mi East 11.5 mph 16.1 mph N/A   Clear
4:15 PM 75.2 °F 41.0 °F 29% 29.96 in 10.0 mi ENE 13.8 mph - N/A   Clear
4:35 PM 75.2 °F 42.8 °F 31% 29.96 in 10.0 mi East 12.7 mph - N/A   Clear
4:55 PM 75.2 °F 42.8 °F 31% 29.96 in 10.0 mi East 11.5 mph - N/A   Clear
5:15 PM 75.2 °F 42.8 °F 31% 29.95 in 10.0 mi East 12.7 mph - N/A   Clear
5:35 PM 75.2 °F 42.8 °F 31% 29.95 in 10.0 mi East 11.5 mph - N/A   Clear
5:55 PM 75.2 °F 42.8 °F 31% 29.95 in 10.0 mi East 11.5 mph - N/A   Clear
6:15 PM 73.4 °F 44.6 °F 36% 29.95 in 10.0 mi ENE 9.2 mph - N/A   Clear
6:35 PM 71.6 °F 44.6 °F 38% 29.95 in 10.0 mi ENE 6.9 mph - N/A   Clear
6:55 PM 69.8 °F 46.4 °F 43% 29.95 in 5.0 mi ENE 6.9 mph - N/A   Clear
7:15 PM 66.2 °F 44.6 °F 46% 29.95 in 7.0 mi NE 6.9 mph - N/A   Clear
7:35 PM 64.4 °F 46.4 °F 52% 29.95 in 7.0 mi NE 6.9 mph - N/A   Clear
7:55 PM 62.6 °F 46.4 °F 55% 29.96 in 10.0 mi NE 8.1 mph - N/A   Clear
8:15 PM 60.8 °F 46.4 °F 59% 29.96 in 10.0 mi NE 6.9 mph - N/A   Clear
8:35 PM 59.0 °F 46.4 °F 63% 29.96 in 10.0 mi NE 6.9 mph - N/A   Clear
8:55 PM 57.2 °F 46.4 °F 67% 29.96 in 10.0 mi ENE 6.9 mph - N/A   Clear
9:15 PM 57.2 °F 46.4 °F 67% 29.96 in 10.0 mi ENE 5.8 mph - N/A   Clear
9:35 PM 57.2 °F 46.4 °F 67% 29.96 in 10.0 mi ENE 5.8 mph - N/A   Clear
9:55 PM 55.4 °F 46.4 °F 72% 29.97 in 10.0 mi ENE 5.8 mph - N/A   Clear
10:15 PM 55.4 °F 46.4 °F 72% 29.97 in 10.0 mi ENE 4.6 mph - N/A   Clear
10:35 PM 55.4 °F 46.4 °F 72% 29.97 in 10.0 mi ENE 4.6 mph - N/A   Clear
10:55 PM 55.4 °F 46.4 °F 72% 29.97 in 10.0 mi ENE 4.6 mph - N/A   Clear
11:15 PM 55.4 °F 46.4 °F 72% 29.96 in 10.0 mi ENE 5.8 mph - N/A   Clear
11:35 PM 55.4 °F 46.4 °F 72% 29.96 in 10.0 mi ENE 5.8 mph - N/A   Clear
11:55 PM 55.4 °F 46.4 °F 72% 29.96 in 10.0 mi ENE 5.8 mph - N/A   Clear